Location: Plymouth
(43.7570°N, 71.6890°W)
Time: 12:18:39
(UTC-04:00)

Amateur Radio Satellites - All Passes

Search period start: 05 September 2015 11:48
Search period end: 06 September 2015 11:48
Location: Plymouth, 43.7570°N, 71.6890°W

Satellite Date Start Highest point End Downlink Frequencies (MHz)
Time Altitude Azimuth
UNISAT 6 05 Sep 11:49:05 11:52:03 16° 271° (W) 11:54:50 437.425
PCSat 05 Sep 11:50:08 11:52:53 14° 255° (WSW) 11:55:22 145.827
Oscar 19 05 Sep 11:53:41 11:56:33 16° 60° (ENE) 11:59:38 437.125/150
CUSAT 1 05 Sep 11:53:49 12:00:43 31° 273° (W) 12:07:28 437.405
DUCHIFAT 1 05 Sep 11:54:02 11:57:51 32° 264° (W) 12:01:41 145.980
POLYITAN 1 05 Sep 11:57:54 12:01:37 28° 265° (W) 12:05:18 437.675
POPSAT HIP 1 05 Sep 11:58:26 12:02:08 28° 265° (W) 12:05:49 437.405
CUBEBUG 1 05 Sep 11:59:23 12:03:40 46° 99° (E) 12:07:56 437.445
ISS 05 Sep 12:00:50 12:03:43 29° 17° (NNE) 12:06:38 145.825
Cosmos 2504 05 Sep 12:12:44 12:18:27 20° 282° (WNW) 12:23:34 435.465 / 435.565
NANOSAT C BR1 05 Sep 12:14:20 12:17:30 20° 268° (W) 12:20:35 145.865
AISAT 05 Sep 12:14:36 12:19:07 75° 285° (WNW) 12:23:35 437.250
QB50P2 05 Sep 12:17:45 12:20:42 17° 269° (W) 12:23:32 145.880/145.840
ESTCUBE 1 05 Sep 12:20:11 12:24:42 88° 284° (WNW) 12:29:13 437.505/2401.250
TISAT 1 05 Sep 12:20:18 12:22:24 14° 89° (E) 12:24:42 437.305
HO-68 05 Sep 12:22:45 12:23:40 10° 315° (NW) 12:24:10 435.675
HUMSAT D 05 Sep 12:29:33 12:32:36 19° 294° (WNW) 12:35:31 437.325/437.525
QB50P1 05 Sep 12:31:29 12:33:38 13° 272° (W) 12:35:35 145.935-145.965
VELOX 1 05 Sep 12:41:31 12:45:45 41° 289° (WNW) 12:49:56 145.980
50 SAT 05 Sep 12:43:31 12:46:47 26° 291° (WNW) 12:49:57 437.505
GONETS M04 05 Sep 12:54:13 13:02:35 46° 72° (ENE) 13:11:01
DANDE 05 Sep 13:00:25 13:05:08 16° 278° (W) 13:09:30 436.750
ITAMSAT 1 05 Sep 13:03:20 13:06:36 18° 61° (ENE) 13:10:01 435.822/435.867
DX 1 05 Sep 13:09:28 13:12:09 16° 297° (WNW) 13:14:42 434.975-435.025
SPROUT 05 Sep 13:10:46 13:15:09 87° 103° (ESE) 13:19:29 437.525
UKube-1 05 Sep 13:13:56 13:16:33 15° 297° (WNW) 13:19:01 .
Gurwin Techsat 1B 05 Sep 13:14:01 13:18:18 26° 65° (ENE) 13:22:43 435.225
RS-15 05 Sep 13:21:58 13:25:16 12° 96° (E) 13:29:39 29.354- 29.394
ITUPSAT 1 05 Sep 13:26:43 13:28:35 12° 87° (E) 13:30:43 437.325
Oscar 19 05 Sep 13:30:08 13:35:20 79° 258° (WSW) 13:40:34 437.125/150
CUBEBUG 1 05 Sep 13:36:32 13:39:42 19° 295° (WNW) 13:42:46 437.445
ISS 05 Sep 13:37:06 13:40:19 60° 216° (SW) 13:43:32 145.825
JAS-2 05 Sep 13:53:15 14:00:19 40° 65° (ENE) 14:07:25 435.910
TISAT 1 05 Sep 13:54:22 13:58:35 56° 287° (WNW) 14:02:45 437.305
BEESAT 05 Sep 13:55:00 13:58:52 25° 93° (E) 14:02:48 436.000
AIST 2 05 Sep 13:57:58 13:58:45 11° 109° (ESE) 13:59:47 435.215
ESTCUBE 1 05 Sep 13:59:52 14:00:56 11° 300° (WNW) 14:01:44 437.505/2401.250
BEESAT 3 05 Sep 14:00:41 14:04:44 75° 122° (ESE) 14:08:49 437.485
Cosmos 2499 05 Sep 14:05:01 14:12:40 35° 67° (ENE) 14:19:58 435.465 / 435.565
AO-7 05 Sep 14:06:48 14:13:22 28° 54° (NE) 14:20:09 29.400- 29.500
BEESAT 2 05 Sep 14:20:32 14:24:38 89° 125° (SE) 14:28:46 435.950
SWISSCUBE 05 Sep 14:21:15 14:25:52 49° 99° (E) 14:30:29 437.505
ITAMSAT 1 05 Sep 14:40:28 14:45:36 68° 257° (WSW) 14:50:48 435.822/435.867
SPROUT 05 Sep 14:49:32 14:50:36 11° 299° (WNW) 14:51:26 437.525
GONETS M04 05 Sep 14:51:17 14:59:26 42° 272° (W) 15:07:27
Gurwin Techsat 1B 05 Sep 14:53:00 14:58:05 44° 262° (W) 15:03:10 435.225
ITUPSAT 1 05 Sep 15:02:20 15:07:07 74° 285° (WNW) 15:11:51 437.325
KKS-1 05 Sep 15:19:05 15:23:00 29° 95° (E) 15:26:57 437.445
RS-15 05 Sep 15:24:51 15:35:28 63° 116° (ESE) 15:46:36 29.354- 29.394
HORYU 2 05 Sep 15:30:21 15:34:41 50° 72° (ENE) 15:39:03 437.375
BEESAT 05 Sep 15:32:26 15:36:50 38° 291° (WNW) 15:41:11 436.000
AIST 2 05 Sep 15:32:30 15:36:45 83° 306° (NW) 15:41:02 435.215
JAS-2 05 Sep 15:37:36 15:45:10 51° 263° (W) 15:52:42 435.910
BEESAT 3 05 Sep 15:40:31 15:43:09 16° 322° (NW) 15:45:42 437.485
AO-7 05 Sep 15:57:08 16:05:30 77° 254° (WSW) 16:13:52 29.400- 29.500
Cosmos 2499 05 Sep 15:57:59 16:06:16 54° 270° (W) 16:13:54 435.465 / 435.565
SWISSCUBE 05 Sep 15:59:52 16:03:25 21° 296° (WNW) 16:06:50 437.505
BEESAT 2 05 Sep 16:00:56 16:03:17 14° 324° (NW) 16:05:34 435.950
MOZHAYETS 4 05 Sep 16:09:56 16:12:43 16° 89° (E) 16:15:40
STARS 05 Sep 16:23:08 16:27:38 83° 103° (ESE) 16:32:04 437.465
KKS-1 05 Sep 16:55:41 16:59:36 29° 292° (WNW) 17:03:25 437.445
Cubesat XI-IV 05 Sep 17:01:05 17:05:01 22° 63° (ENE) 17:09:05 437.490
HORYU 2 05 Sep 17:08:36 17:11:38 17° 269° (W) 17:14:31 437.375
AIST 2 05 Sep 17:13:38 17:16:01 14° 325° (NW) 17:18:17 435.215
RS-15 05 Sep 17:37:53 17:48:27 47° 322° (NW) 17:59:26 29.354- 29.394
CUTE-I 05 Sep 17:43:00 17:48:05 49° 70° (ENE) 17:53:12 437.470
MOZHAYETS 4 05 Sep 17:45:52 17:50:19 53° 287° (WNW) 17:54:44
AO-7 05 Sep 17:55:03 17:59:51 15° 275° (W) 18:04:06 29.400- 29.500
STARS 05 Sep 18:01:49 18:03:28 12° 300° (WNW) 18:04:55 437.465
O/OREOS (USA 219) 05 Sep 18:03:17 18:07:43 57° 109° (ESE) 18:12:14 437.305
BRITE-PL 05 Sep 18:13:22 18:16:07 16° 61° (ENE) 18:19:10 437.365/2234.400
GOMX 1 05 Sep 18:16:49 18:17:57 11° 57° (ENE) 18:19:21 467.674
CUBESAT XI-V 05 Sep 18:17:28 18:21:36 31° 95° (E) 18:25:46 437.345
Cubesat XI-IV 05 Sep 18:39:35 18:44:47 55° 260° (W) 18:50:01 437.490
STRAND 1 05 Sep 18:39:36 18:42:11 14° 88° (E) 18:45:01 437.568
AIST 1 05 Sep 18:43:53 18:48:15 81° 81° (E) 18:52:37
Cosmos 2491 05 Sep 19:05:23 19:13:42 46° 72° (ENE) 19:22:06 435.465 / 435.565
HO-68 05 Sep 19:13:24 19:19:32 33° 61° (ENE) 19:25:49 435.675
YUBILEINY 05 Sep 19:15:08 19:20:54 21° 79° (E) 19:27:06 435.215
CUTE-I 05 Sep 19:24:15 19:28:28 23° 268° (W) 19:32:34 437.470
PRISM 05 Sep 19:36:15 19:39:55 31° 96° (E) 19:43:38 437.425
DOVE 4 05 Sep 19:37:52 19:42:15 38° 69° (ENE) 19:46:57 437.250
O/OREOS (USA 219) 05 Sep 19:44:23 19:47:35 18° 309° (NW) 19:50:43 437.305
CINEMA 3 05 Sep 19:44:37 19:48:11 21° 64° (ENE) 19:51:58 145.822/145.860
BRITE-PL 05 Sep 19:49:35 19:54:04 64° 260° (W) 19:58:59 437.365/2234.400
CUTE 1.7 + AOD 2 05 Sep 19:49:46 19:53:32 31° 70° (ENE) 19:57:20 437.475
GOMX 1 05 Sep 19:50:30 19:55:11 79° 75° (ENE) 20:00:15 467.674
CUBESAT XI-V 05 Sep 19:54:57 19:59:00 29° 292° (WNW) 20:02:58 437.345
RS-15 05 Sep 19:55:37 20:04:43 26° 354° (N) 20:14:06 29.354- 29.394
CANX-2 05 Sep 20:04:14 20:08:22 49° 73° (ENE) 20:12:31 2200.000
ZACube-1 05 Sep 20:13:53 20:15:03 11° 60° (ENE) 20:16:28 437.345
SEEDS 05 Sep 20:15:52 20:19:56 47° 73° (ENE) 20:24:01 437.485
FUNcube-1 05 Sep 20:16:30 20:17:51 11° 61° (ENE) 20:19:26 145.935
STRAND 1 05 Sep 20:16:54 20:22:01 73° 286° (WNW) 20:27:07 437.568
DELFI C3 05 Sep 20:22:17 20:23:11 11° 63° (ENE) 20:24:16 145.870
COMPASS 1 05 Sep 20:28:33 20:32:37 51° 73° (ENE) 20:36:42 437.405
UWE-3 05 Sep 20:30:38 20:34:04 21° 66° (ENE) 20:37:39 435.000/436.395/437.385
AAUSAT CUBESAT 2 05 Sep 20:33:52 20:37:54 49° 73° (ENE) 20:41:57 437.432
CUBEBUG 2 05 Sep 20:34:36 20:38:36 29° 68° (ENE) 20:42:45 437.445
BEESAT 3 05 Sep 20:41:51 20:43:10 11° 33° (NNE) 20:44:37 437.485
Oscar 11 05 Sep 20:51:35 20:55:33 35° 70° (ENE) 20:59:32 145.826/435.025
HO-68 05 Sep 20:59:59 21:07:00 55° 260° (W) 21:14:02 435.675
BEESAT 2 05 Sep 21:01:46 21:03:42 13° 35° (NE) 21:05:43 435.950
Cosmos 2491 05 Sep 21:02:28 21:10:33 42° 272° (W) 21:18:31 435.465 / 435.565
Cosmos 2504 05 Sep 21:03:42 21:06:32 12° 74° (ENE) 21:10:01 435.465 / 435.565
YUBILEINY 05 Sep 21:07:53 21:16:43 86° 280° (W) 21:25:38 435.215
PRISM 05 Sep 21:11:55 21:15:13 23° 293° (WNW) 21:18:29 437.425
DOVE 4 05 Sep 21:16:06 21:20:08 26° 268° (W) 21:24:19 437.250
CINEMA 3 05 Sep 21:20:20 21:25:01 50° 262° (W) 21:29:52 145.822/145.860
CUTE 1.7 + AOD 2 05 Sep 21:25:56 21:29:29 24° 267° (W) 21:32:57 437.475
GOMX 1 05 Sep 21:32:15 21:34:10 12° 276° (W) 21:35:51 467.674
AISAT 05 Sep 21:39:43 21:41:42 13° 62° (ENE) 21:43:53 437.250
CANX-2 05 Sep 21:41:57 21:44:37 15° 270° (W) 21:47:08 2200.000
HUMSAT D 05 Sep 21:45:50 21:49:45 35° 70° (ENE) 21:53:43 437.325/437.525
ZACube-1 05 Sep 21:46:09 21:50:44 88° 74° (ENE) 21:55:23 437.345
ESTCUBE 1 05 Sep 21:47:35 21:49:03 12° 61° (ENE) 21:50:45 437.505/2401.250
FUNcube-1 05 Sep 21:48:56 21:53:32 89° 272° (W) 21:58:09 145.935
SEEDS 05 Sep 21:53:19 21:56:01 16° 270° (W) 21:58:34 437.485
DELFI C3 05 Sep 21:53:40 21:57:43 74° 258° (WSW) 22:01:46 145.870
50 SAT 05 Sep 21:54:14 21:56:51 18° 66° (ENE) 21:59:35 437.505
STRAND 1 05 Sep 21:59:11 22:00:26 11° 303° (WNW) 22:01:23 437.568
UNISAT 6 05 Sep 22:03:46 22:04:43 11° 86° (E) 22:05:55 437.425
VELOX 1 05 Sep 22:04:43 22:08:03 22° 66° (ENE) 22:11:30 145.980
UWE-3 05 Sep 22:05:50 22:10:18 45° 262° (W) 22:14:50 435.000/436.395/437.385
COMPASS 1 05 Sep 22:06:10 22:08:37 15° 271° (W) 22:10:54 437.405
CUBEBUG 2 05 Sep 22:10:57 22:15:13 33° 265° (W) 22:19:30 437.445
AAUSAT CUBESAT 2 05 Sep 22:11:18 22:13:49 15° 271° (W) 22:16:10 437.432
RS-15 05 Sep 22:11:20 22:21:42 36° 28° (NNE) 22:32:35 29.354- 29.394
AIST 2 05 Sep 22:15:38 22:18:05 15° 36° (NE) 22:20:36 435.215
BEESAT 3 05 Sep 22:17:53 22:21:56 67° 54° (NE) 22:25:53 437.485
TIGRISAT 05 Sep 22:28:09 22:31:22 19° 91° (E) 22:34:38 435.000
Oscar 11 05 Sep 22:28:22 22:31:50 22° 267° (W) 22:35:12 145.826/435.025
DX 1 05 Sep 22:28:38 22:32:53 59° 73° (ENE) 22:37:11 434.975-435.025
UKube-1 05 Sep 22:32:21 22:36:34 58° 73° (ENE) 22:40:51 .
BEESAT 2 05 Sep 22:38:21 22:42:26 81° 55° (NE) 22:46:27 435.950
ANTELSAT 05 Sep 22:47:05 22:51:06 31° 95° (E) 22:55:04 437.575/2403.000
DANDE 05 Sep 22:48:07 22:50:22 14° 80° (E) 22:53:10 436.750
Cosmos 2504 05 Sep 22:49:02 22:57:11 65° 92° (E) 23:05:44 435.465 / 435.565
M-CUBED/EXP-1 PRIME 05 Sep 22:56:38 22:58:56 16° 95° (E) 23:01:14 437.505
CUBEBUG 1 05 Sep 22:56:40 23:00:47 44° 71° (ENE) 23:04:57 437.445
YUBILEINY 05 Sep 23:08:54 23:15:10 20° 302° (WNW) 23:21:03 435.215
AISAT 05 Sep 23:13:20 23:17:44 72° 258° (WSW) 23:22:12 437.250
TISAT 1 05 Sep 23:14:15 23:16:13 13° 63° (ENE) 23:18:21 437.305
CUSAT 1 05 Sep 23:18:48 23:23:09 52° 93° (E) 23:28:59 437.405
BUGSAT 1 05 Sep 23:20:43 23:23:10 15° 90° (E) 23:25:48 437.445
ESTCUBE 1 05 Sep 23:20:51 23:25:20 83° 255° (WSW) 23:29:51 437.505/2401.250
HUMSAT D 05 Sep 23:22:06 23:25:35 22° 268° (W) 23:28:58 437.325/437.525
SO-50 05 Sep 23:25:34 23:29:48 33° 115° (ESE) 23:34:13 436.795
50 SAT 05 Sep 23:27:23 23:31:06 39° 262° (W) 23:34:50 437.505
DUCHIFAT 1 05 Sep 23:36:55 23:40:53 36° 97° (E) 23:44:49 145.980
UNISAT 6 05 Sep 23:37:38 23:42:12 77° 284° (WNW) 23:46:35 437.425
VELOX 1 05 Sep 23:40:16 23:44:24 38° 262° (W) 23:48:33 145.980
POLYITAN 1 05 Sep 23:41:16 23:45:22 42° 98° (E) 23:49:28 437.675
POPSAT HIP 1 05 Sep 23:41:34 23:45:40 42° 98° (E) 23:49:44 437.405
AIST 2 05 Sep 23:53:04 23:57:16 86° 237° (WSW) 00:01:23 435.215
NANOSAT C BR1 05 Sep 23:56:22 00:00:38 61° 101° (E) 00:04:52 145.865
BEESAT 3 05 Sep 23:57:39 23:59:21 12° 250° (WSW) 00:00:51 437.485
QB50P2 05 Sep 23:59:55 00:04:13 70° 102° (ESE) 00:08:29 145.880/145.840
TIGRISAT 06 Sep 00:04:03 00:08:22 42° 289° (WNW) 00:12:31 435.000
SPROUT 06 Sep 00:05:48 00:10:05 78° 76° (ENE) 00:14:26 437.525
DX 1 06 Sep 00:07:18 00:09:35 14° 271° (W) 00:11:41 434.975-435.025
UKube-1 06 Sep 00:10:51 00:13:09 14° 271° (W) 00:15:15 .
QB50P1 06 Sep 00:12:29 00:16:49 88° 277° (W) 00:21:05 145.935-145.965
AUBIESAT-1 06 Sep 00:19:16 00:23:02 59° 292° (WNW) 00:26:30 437.475
ANTELSAT 06 Sep 00:23:58 00:27:48 27° 293° (WNW) 00:31:28 437.575/2403.000
RS-15 06 Sep 00:24:10 00:36:04 86° 56° (NE) 00:48:22 29.354- 29.394
DANDE 06 Sep 00:28:33 00:32:32 54° 287° (WNW) 00:37:58 436.750
M-CUBED/EXP-1 PRIME 06 Sep 00:30:25 00:34:01 36° 295° (WNW) 00:37:19 437.505
ITUPSAT 1 06 Sep 00:34:25 00:37:35 19° 63° (ENE) 00:40:54 437.325
CUBEBUG 1 06 Sep 00:34:25 00:37:25 18° 269° (W) 00:40:17 437.445
Cosmos 2504 06 Sep 00:42:53 00:50:08 30° 295° (WNW) 00:57:25 435.465 / 435.565
TISAT 1 06 Sep 00:47:18 00:51:29 64° 258° (WSW) 00:55:43 437.305
PCSat 06 Sep 00:47:22 00:52:41 62° 117° (ESE) 00:58:04 145.827
BUGSAT 1 06 Sep 00:54:49 00:58:58 50° 287° (WNW) 01:03:06 437.445
VERMONT LUNAR 06 Sep 00:54:57 00:56:31 13° 154° (SSE) 00:58:07 437.305
CUSAT 1 06 Sep 01:02:38 01:06:25 21° 301° (WNW) 01:10:51 437.405
BEESAT 06 Sep 01:02:39 01:06:52 33° 68° (ENE) 01:11:10 436.000
SO-50 06 Sep 01:05:46 01:10:18 37° 314° (NW) 01:14:55 436.795
DUCHIFAT 1 06 Sep 01:13:07 01:16:29 22° 293° (WNW) 01:19:45 145.980
POLYITAN 1 06 Sep 01:17:52 01:21:00 19° 295° (WNW) 01:24:00 437.675
POPSAT HIP 1 06 Sep 01:18:06 01:21:15 20° 294° (WNW) 01:24:17 437.405
SWISSCUBE 06 Sep 01:28:55 01:33:38 65° 73° (ENE) 01:38:22 437.505
NANOSAT C BR1 06 Sep 01:33:38 01:36:01 14° 297° (WNW) 01:38:13 145.865
QB50P2 06 Sep 01:37:37 01:39:36 13° 298° (WNW) 01:41:23 145.880/145.840
Oscar 19 06 Sep 01:40:41 01:45:21 33° 95° (E) 01:50:02 437.125/150
STARS 06 Sep 01:49:25 01:49:36 10° 59° (ENE) 01:50:03 437.465
GONETS M04 06 Sep 01:56:52 02:05:03 50° 90° (E) 02:13:23
ITUPSAT 1 06 Sep 02:10:25 02:15:06 55° 260° (W) 02:19:48 437.325
KKS-1 06 Sep 02:18:27 02:22:23 32° 68° (ENE) 02:26:24 437.445
VERMONT LUNAR 06 Sep 02:29:39 02:32:26 35° 169° (S) 02:35:12 437.305
PCSat 06 Sep 02:32:06 02:36:33 25° 317° (NW) 02:40:57 145.827
O/OREOS (USA 219) 06 Sep 02:33:34 02:36:40 18° 51° (NE) 02:39:52 437.305
RS-15 06 Sep 02:37:51 02:47:27 28° 256° (WSW) 02:56:46 29.354- 29.394
BEESAT 06 Sep 02:40:38 02:44:46 28° 266° (W) 02:48:50 436.000
Cosmos 2499 06 Sep 02:43:11 02:49:58 28° 82° (E) 02:57:11 435.465 / 435.565
JAS-2 06 Sep 02:47:40 02:53:00 26° 88° (E) 02:57:59 435.910
SO-50 06 Sep 02:51:18 02:52:19 10° 337° (NNW) 02:53:12 436.795
ITAMSAT 1 06 Sep 02:52:04 02:56:53 38° 97° (E) 03:01:45 435.822/435.867
Gurwin Techsat 1B 06 Sep 03:07:29 03:12:47 67° 101° (ESE) 03:18:05 435.225
SWISSCUBE 06 Sep 03:09:20 03:12:00 14° 271° (W) 03:14:27 437.505
MOZHAYETS 4 06 Sep 03:13:14 03:16:26 19° 65° (ENE) 03:19:44
Oscar 19 06 Sep 03:20:03 03:24:41 33° 293° (WNW) 03:29:14 437.125/150
STARS 06 Sep 03:20:56 03:25:22 85° 79° (E) 03:29:51 437.465
PHONESAT 2.4 06 Sep 03:27:04 03:29:34 19° 156° (SSE) 03:32:05 2401.200-2431.200
GONETS M04 06 Sep 03:54:08 04:02:10 39° 291° (WNW) 04:10:10
KKS-1 06 Sep 03:55:15 03:59:03 26° 266° (W) 04:02:47 437.445
AO-7 06 Sep 03:57:41 04:04:56 34° 95° (E) 04:12:19 29.400- 29.500
VERMONT LUNAR 06 Sep 04:05:42 04:08:34 41° 186° (S) 04:11:24 437.305
O/OREOS (USA 219) 06 Sep 04:12:00 04:16:33 59° 251° (WSW) 04:21:03 437.305
ITAMSAT 1 06 Sep 04:31:50 04:36:17 29° 294° (WNW) 04:40:39 435.822/435.867
JAS-2 06 Sep 04:31:59 04:38:39 55° 291° (WNW) 04:44:29 435.910
Cosmos 2499 06 Sep 04:33:49 04:42:27 70° 282° (WNW) 04:51:22 435.465 / 435.565
Gurwin Techsat 1B 06 Sep 04:48:39 04:52:18 19° 299° (WNW) 04:55:46 435.225
MOZHAYETS 4 06 Sep 04:48:52 04:53:20 48° 261° (W) 04:57:48
HORYU 2 06 Sep 04:56:30 05:00:59 84° 103° (ESE) 05:05:25 437.375
PHONESAT 2.4 06 Sep 05:03:44 05:07:00 43° 172° (S) 05:10:16 2401.200-2431.200
CUBESAT XI-V 06 Sep 05:22:08 05:26:16 35° 70° (ENE) 05:30:28 437.345
YUBILEINY 06 Sep 05:24:00 05:25:32 11° 47° (NE) 05:27:44 435.215
VERMONT LUNAR 06 Sep 05:42:20 05:44:34 19° 202° (SSW) 05:46:45 437.305
AO-7 06 Sep 05:50:05 05:58:11 59° 295° (WNW) 06:06:13 29.400- 29.500
STRAND 1 06 Sep 05:56:16 06:00:18 25° 65° (ENE) 06:04:27 437.568
CUTE-I 06 Sep 05:59:46 06:03:06 17° 89° (E) 06:06:39 437.470
SO-50 06 Sep 06:16:34 06:18:18 12° 26° (NNE) 06:20:09 436.795
ISS 06 Sep 06:17:37 06:20:00 19° 135° (SE) 06:22:26 145.825
JAS-2 06 Sep 06:20:17 06:22:11 11° 312° (NW) 06:23:39 435.910
PRISM 06 Sep 06:27:36 06:31:04 28° 68° (ENE) 06:34:35 437.425
Cosmos 2499 06 Sep 06:32:16 06:37:39 16° 306° (NW) 06:42:37 435.465 / 435.565
HORYU 2 06 Sep 06:35:27 06:37:01 11° 300° (WNW) 06:38:22 437.375
PHONESAT 2.4 06 Sep 06:41:21 06:44:38 43° 189° (S) 06:47:53 2401.200-2431.200
Cubesat XI-IV 06 Sep 06:55:18 07:00:32 54° 100° (E) 07:05:46 437.490
CUBESAT XI-V 06 Sep 07:00:00 07:03:48 25° 267° (W) 07:07:34 437.345
AIST 1 06 Sep 07:14:40 07:18:40 43° 93° (E) 07:22:44
YUBILEINY 06 Sep 07:16:39 07:25:13 52° 74° (ENE) 07:33:44 435.215
STRAND 1 06 Sep 07:34:26 07:39:18 44° 261° (W) 07:44:10 437.568
DOVE 4 06 Sep 07:38:13 07:39:18 11° 83° (E) 07:40:45 437.250
CUTE-I 06 Sep 07:38:26 07:43:43 65° 288° (WNW) 07:49:00 437.470
AO-7 06 Sep 07:45:01 07:49:26 15° 316° (NW) 07:53:28 29.400- 29.500
GOMX 1 06 Sep 07:51:17 07:55:46 26° 91° (E) 08:00:18 467.674
PCSat 06 Sep 07:51:52 07:54:46 15° 34° (NE) 07:57:50 145.827
BRITE-PL 06 Sep 07:52:19 07:57:39 43° 96° (E) 08:03:04 437.365/2234.400
ISS 06 Sep 07:52:56 07:56:10 60° 332° (NNW) 07:59:24 145.825
SO-50 06 Sep 07:55:25 08:00:10 44° 48° (NE) 08:04:50 436.795
PRISM 06 Sep 08:03:02 08:06:29 25° 265° (W) 08:09:53 437.425
Cosmos 2491 06 Sep 08:08:08 08:16:20 50° 90° (E) 08:24:40 435.465 / 435.565
CUSAT 1 06 Sep 08:12:01 08:15:30 14° 53° (NE) 08:19:32 437.405
PHONESAT 2.4 06 Sep 08:19:35 08:22:04 19° 204° (SSW) 08:24:31 2401.200-2431.200
HO-68 06 Sep 08:26:32 08:32:30 28° 93° (E) 08:38:36 435.675
Cosmos 2504 06 Sep 08:35:11 08:41:31 24° 61° (ENE) 08:47:50 435.465 / 435.565
Cubesat XI-IV 06 Sep 08:36:12 08:40:19 22° 297° (WNW) 08:44:17 437.490
AIST 1 06 Sep 08:53:45 08:56:37 17° 292° (WNW) 08:59:22
UNISAT 6 06 Sep 09:03:24 09:05:41 14° 62° (ENE) 09:08:11 437.425
CUTE 1.7 + AOD 2 06 Sep 09:08:51 09:12:58 50° 99° (E) 09:17:04 437.475
DOVE 4 06 Sep 09:12:37 09:17:59 83° 102° (ESE) 09:23:12 437.250
YUBILEINY 06 Sep 09:13:56 09:21:49 37° 274° (W) 09:29:31 435.215
CINEMA 3 06 Sep 09:14:06 09:18:44 39° 96° (E) 09:23:13 145.822/145.860
DANDE 06 Sep 09:22:15 09:28:50 29° 65° (ENE) 09:36:03 436.750
CANX-2 06 Sep 09:23:46 09:28:01 84° 102° (ESE) 09:32:13 2200.000
TIGRISAT 06 Sep 09:27:55 09:31:31 23° 66° (ENE) 09:35:12 435.000
GOMX 1 06 Sep 09:28:49 09:34:06 47° 289° (WNW) 09:39:18 467.674
ISS 06 Sep 09:30:25 09:33:02 22° 351° (N) 09:35:39 145.825
BRITE-PL 06 Sep 09:31:06 09:36:00 31° 293° (WNW) 09:40:53 437.365/2234.400
DELFI C3 06 Sep 09:32:51 09:34:40 13° 89° (E) 09:36:40 145.870
AUBIESAT-1 06 Sep 09:33:12 09:36:53 24° 62° (ENE) 09:40:32 437.475
PCSat 06 Sep 09:33:56 09:39:20 65° 56° (NE) 09:44:44 145.827
SEEDS 06 Sep 09:34:13 09:38:26 78° 102° (ESE) 09:42:35 437.485
ZACube-1 06 Sep 09:34:59 09:37:36 16° 89° (E) 09:40:20 437.345
SO-50 06 Sep 09:36:22 09:40:31 27° 246° (WSW) 09:44:30 436.795
FUNcube-1 06 Sep 09:37:27 09:40:08 16° 89° (E) 09:42:56 145.935
M-CUBED/EXP-1 PRIME 06 Sep 09:43:55 09:48:12 35° 65° (ENE) 09:52:23 437.505
COMPASS 1 06 Sep 09:45:52 09:50:02 82° 101° (ESE) 09:54:10 437.405
ANTELSAT 06 Sep 09:46:53 09:51:08 35° 69° (ENE) 09:55:25 437.575/2403.000
AAUSAT CUBESAT 2 06 Sep 09:50:36 09:54:45 78° 102° (ESE) 09:58:52 437.432
CUSAT 1 06 Sep 09:52:02 09:59:57 57° 74° (ENE) 10:07:55 437.405
UWE-3 06 Sep 09:54:40 09:58:47 33° 95° (E) 10:02:48 435.000/436.395/437.385
CUBEBUG 2 06 Sep 10:00:25 10:04:56 50° 98° (E) 10:09:18 437.445
Cosmos 2491 06 Sep 10:05:28 10:13:30 38° 291° (WNW) 10:21:26 435.465 / 435.565
BUGSAT 1 06 Sep 10:12:50 10:14:47 13° 63° (ENE) 10:16:55 437.445
Oscar 11 06 Sep 10:13:09 10:17:27 60° 100° (E) 10:21:41 145.826/435.025
HO-68 06 Sep 10:13:38 10:20:42 60° 292° (WNW) 10:27:43 435.675
Cosmos 2504 06 Sep 10:26:27 10:34:54 79° 264° (W) 10:42:43 435.465 / 435.565
DUCHIFAT 1 06 Sep 10:30:25 10:34:10 32° 69° (ENE) 10:38:00 145.980
POLYITAN 1 06 Sep 10:35:19 10:39:17 38° 71° (ENE) 10:43:19 437.675
POPSAT HIP 1 06 Sep 10:35:26 10:39:22 37° 70° (ENE) 10:43:21 437.405
UNISAT 6 06 Sep 10:37:12 10:41:54 76° 257° (WSW) 10:46:39 437.425
CUTE 1.7 + AOD 2 06 Sep 10:45:52 10:48:30 16° 295° (WNW) 10:51:00 437.475
NANOSAT C BR1 06 Sep 10:49:50 10:53:57 53° 73° (ENE) 10:58:09 145.865
CINEMA 3 06 Sep 10:51:36 10:55:45 26° 294° (WNW) 10:59:41 145.822/145.860
DOVE 4 06 Sep 10:51:58 10:55:03 15° 299° (WNW) 10:57:54 437.250
QB50P2 06 Sep 10:53:44 10:57:56 61° 74° (ENE) 11:02:12 145.880/145.840
50 SAT 06 Sep 11:01:30 11:04:18 19° 93° (E) 11:07:08 437.505
CANX-2 06 Sep 11:02:38 11:03:20 10° 299° (WNW) 11:03:49 2200.000
AISAT 06 Sep 11:03:21 11:06:36 20° 92° (E) 11:09:58 437.250
TIGRISAT 06 Sep 11:03:31 11:08:00 43° 262° (W) 11:12:30 435.000
HUMSAT D 06 Sep 11:03:44 11:07:52 53° 99° (E) 11:11:55 437.325/437.525
DANDE 06 Sep 11:04:39 11:12:39 75° 263° (W) 11:21:09 436.750
QB50P1 06 Sep 11:06:02 11:10:18 81° 78° (ENE) 11:14:37 145.935-145.965
DELFI C3 06 Sep 11:06:12 11:10:05 51° 287° (WNW) 11:13:56 145.870
AUBIESAT-1 06 Sep 11:06:52 11:11:22 42° 257° (WSW) 11:15:42 437.475
ISS 06 Sep 11:07:30 11:10:12 23° 11° (NNE) 11:12:53 145.825
ZACube-1 06 Sep 11:10:00 11:14:21 51° 287° (WNW) 11:18:33 437.345
SEEDS 06 Sep 11:12:30 11:13:39 11° 298° (WNW) 11:14:36 437.485
FUNcube-1 06 Sep 11:12:30 11:16:50 50° 287° (WNW) 11:21:00 145.935
ESTCUBE 1 06 Sep 11:13:02 11:16:10 19° 91° (E) 11:19:26 437.505/2401.250
PCSat 06 Sep 11:18:28 11:22:18 19° 253° (WSW) 11:25:57 145.827
M-CUBED/EXP-1 PRIME 06 Sep 11:18:48 11:22:58 29° 260° (W) 11:26:58 437.505
ANTELSAT 06 Sep 11:23:56 11:27:57 27° 266° (W) 11:31:55 437.575/2403.000
COMPASS 1 06 Sep 11:24:32 11:25:07 10° 298° (WNW) 11:25:29 437.405
AAUSAT CUBESAT 2 06 Sep 11:28:47 11:29:47 11° 298° (WNW) 11:30:34 437.432
VELOX 1 06 Sep 11:29:07 11:33:12 35° 97° (E) 11:37:19 145.980
UWE-3 06 Sep 11:31:24 11:35:10 25° 293° (WNW) 11:38:47 435.000/436.395/437.385
CUBEBUG 2 06 Sep 11:37:58 11:41:14 19° 296° (WNW) 11:44:19 437.445
